Back to catalog

DELTA 1 DEB

AliveUNKNOWN
NORAD 13533·DEBRIS·🇺🇸 United States

Launched Jul 29, 1976 from Vandenberg Space Force Base

Loading…

Next Passes (next 24 hours)

TLE

FreshSource: Space-Track

Epoch: Sep 14, 2026, 08:44 UTC

1 13533U 76077EF  26257.36443324  .00000348  00000-0  54308-2 0  9990
2 13533 101.8718 205.9122 0361293 125.8568  26.4159 11.74585362 45786

Track DELTA 1 DEB in real time with AllMySat

Download on the App Store